{"data":{"norad_id":48240,"intl_designator":"2021-031AG","name":"ONEWEB-0195","alt_names":[],"object_type":"PAYLOAD","status":"ACTIVE","operator":null,"country":"UK","launch_date":"2021-04-25","launch_site_code":"VOSTO","launch_vehicle":null,"mission":null,"orbit_class":"UNKNOWN","rcs_meters":null,"size_class":null,"mass_kg":null,"dimensions":null,"purposes":["comms"],"wikipedia_slug":null,"has_3d_model":false,"image_url":null,"decayed_at":null,"tle_current":{"epoch":"2026-09-19T19:48:23.821344Z","epoch_age_seconds":76603,"freshness":"FRESH","line1":"1 48240U 21031AG  26262.82527571 -.00000209  00000+0 -59885-3 0  9990","line2":"2 48240  87.8899 270.8268 0001556  86.2471 273.8837 13.14503525260585","mean_motion":13.14503525,"eccentricity":0.0001556,"inclination_deg":87.8899,"raan_deg":270.8268,"arg_perigee_deg":86.2471,"mean_anomaly_deg":273.8837,"bstar":-0.00059885,"rev_number":26058,"period_min":109.54706264481,"perigee_km":1204.6075074265,"apogee_km":1206.9676247515,"semimajor_km":7583.924566089,"source":"CELESTRAK","updated_at":"2026-09-20T09:00:44.613191Z"}}}